Location: Ku?niki
(51.4449°N, 17.8974°E)
Time: 19:12:40
(UTC+00:00)

USA 234 - Pass Details

Date: 18 September 2020
Orbit: 1102 x 1106 km, 123.0° (Epoch: 16 October)

Event Time Altitude Azimuth Distance (km) Brightness Sun altitude
Rises 23:40:15 0° 94° (E) 3,918 6.3 -35.8°
Reaches altitude 10° 23:42:46 10° 91° (E) 2,961 5.7 -35.6°
Maximum altitude 23:49:11 61° 13° (NNE) 1,237 3.6 -35.3°
Enters shadow 23:50:38 50° 324° (NW) 1,383 3.8 -35.2°
Exits shadow 23:54:27 16° 297° (WNW) 2,543 5.2 -35.0°
Drops below altitude 10° 23:55:36 10° 295° (WNW) 2,967 5.5 -34.9°
Sets 23:58:07 0° 292° (WNW) 3,927 6.2 -34.8°
